Regional Weather Roundup
Issued by NWS Upton, NY

Home | Current Version | Previous Version | Text Only | Print | Product List | Glossary On
Versions: 1 2 3 4 5 6 7 8 9 10 11 12 13 14 15 16 17 18 19 20 21 22 23 24 25 26 27 28 29 30 31 32 33 34 35 36 37 38 39 40 41 42 43 44 45 46 47 48 49 50
000
ASUS41 KOKX 021724
RWROKX

REGIONAL WEATHER ROUNDUP
NATIONAL WEATHER SERVICE NEW YORK NY
100 PM EDT THU OCT 02 2014

NOTE: "FAIR" INDICATES FEW OR NO CLOUDS BELOW 12,000 FEET WITH NO
SIGNIFICANT WEATHER AND/OR OBSTRUCTIONS TO VISIBILITY.

NYZ071-072-176-178-NJZ106-104-021800-
NEW YORK CITY METRO AREA


CITY           SKY/WX    TMP DP  RH WIND       PRES   REMARKS
CENTRAL PARK   CLOUDY    66  53  63 VRB6      30.16F
LAGUARDIA APRT PTSUNNY   66  55  67 NE10      30.12F
KENNEDY INTL   PTSUNNY   66  54  65 NE10      30.13F
NEWARK/LIBERTY CLOUDY    66  55  67 NE7       30.13F
BRNX BOT. GARD   N/A     68  54  60 NE3       30.14F
TETERBORO      CLOUDY    68  54  60 NE8       30.12F
$$

NYZ177-179-078>081-021800-
LONG ISLAND NEW YORK

CITY           SKY/WX    TMP DP  RH WIND       PRES   REMARKS
FARMINGDALE    CLOUDY    64  55  72 NE14      30.13F
ISLIP          CLOUDY    62  55  77 N10       30.10F
SHIRLEY        CLOUDY    62  55  77 N12       30.13R
WESTHAMPTON    CLOUDY    64  55  72 N12G22    30.13S
MONTAUK POINT    N/A     59  56  89 N13G21    30.13S
$$

NYZ052-065-067-021800-
HUDSON VALLEY

CITY           SKY/WX    TMP DP  RH WIND       PRES   REMARKS
WHITE PLAINS   PTSUNNY   64  53  67 N6        30.13F
NEWBURGH       PTSUNNY   64  57  77 NE6       30.16F
MONTGOMERY       N/A     67  56  67 N6        30.14F
POUGHKEEPSIE   CLOUDY    66  55  67 E7        30.13F
ALBANY         PTSUNNY   66  54  65 CALM      30.15F
$$

NJZ001-105-106-008-010-013-015-019>022-104-021800-
NEW JERSEY

CITY           SKY/WX    TMP DP  RH WIND       PRES   REMARKS
NEWARK/LIBERTY CLOUDY    66  55  67 NE7       30.13F
TETERBORO      CLOUDY    68  54  60 NE8       30.12F
CALDWELL       CLOUDY    67  53  61 E9        30.14F
MORRISTOWN     CLOUDY    68  57  68 E9        30.14F
SOMERVILLE     CLOUDY    68  55  63 VRB3      30.11F
SUSSEX         CLOUDY    67  55  65 N7        30.14F
ANDOVER          N/A     65  56  72 VRB5      30.15F
TRENTON        CLOUDY    65  54  67 NE6       30.14S
MILLVILLE      CLOUDY    65  56  72 VRB7      30.13F
ATLANTIC CITY  CLOUDY    65  58  78 N9        30.12F
WRIGHTSTOWN    CLOUDY    64  57  78 NE7       30.12R
TOMS RIVER     CLOUDY    64  55  72 NE7       30.13S
BELMAR         CLOUDY    63  54  72 N6        30.13S
$$

PAZ047>061-062-071-021800-
EASTERN PENNSYLVANIA

CITY           SKY/WX    TMP DP  RH WIND       PRES   REMARKS
PHILADELPHIA   PTSUNNY   70  56  61 NE7       30.13S
ALLENTOWN      CLOUDY    67  55  65 E7        30.15S
SCRANTON       CLOUDY    70  53  54 N8        30.13F
$$

CTZ002-004>006-009-010-012-RIZ004-006-007-MAZ004-011-015-021800-
SOUTHERN NEW ENGLAND
 IN CT

CITY           SKY/WX    TMP DP  RH WIND       PRES   REMARKS
BRADLEY INTL   CLOUDY    62  55  77 N10       30.13F
HARTFORD       CLOUDY    61  55  81 NE8G17    30.13F
DANBURY        CLOUDY    64  54  69 VRB7      30.14F
WTRBRY/OXFORD  PTSUNNY   63  52  67 NE9       30.14F
BRIDGEPORT     CLOUDY    65  55  70 N12       30.12F
MERIDEN        CLOUDY    60  55  83 NE7       30.14F
NEW HAVEN      CLOUDY    64  55  72 N16       30.13F
CHESTER        CLOUDY    59  55  88 NE8       30.13F FOG
GROTON         CLOUDY    58  55  90 N13       30.12F
WILLIMANTIC    CLOUDY    60  53  77 NE10      30.15F

 IN RI

CITY           SKY/WX    TMP DP  RH WIND       PRES   REMARKS
PROVIDENCE     CLOUDY    58  54  86 NE13      30.15R
BLOCK ISLAND   CLOUDY    57  52  82 NE18G26   30.12S
WESTERLY       CLOUDY    60  54  80 N13G18    30.13S

 IN MA

CITY           SKY/WX    TMP DP  RH WIND       PRES   REMARKS
BOSTON         CLOUDY    55  52  89 N15       30.17R
WORCESTER      CLOUDY    54  52  93 NE8       30.16F
WESTFIELD      CLOUDY    62  54  74 N10       30.14F
PROVINCETOWN   CLOUDY    55  52  88 NE18G26   30.13S
NANTUCKET      LGT RAIN  59  55  87 NE22G29   30.06R
$$

ANZ330-335-338-340-345-350-353-355-021800-
COASTAL MARINE OBSERVATIONS


STATION/POSITION TIME  SKY/WX   TEMP    WIND        PRES    VSBY  WAVE
                                AIR SEA DIR/SP/G                  HT/PER
                 (UTC)          (F)     (DEG/KT/KT) (MB)    (MI)  (FT/S)
NY HARB ENTRANCE NOT AVBL
4S FIRE IS       1700               67                N/A           5/ 7
20S FIRE ISLAND  1700            62 67   20/ 16/ 19 1019.0          7/ 8
23SW MTP         1700                                 N/A           7/ 8
HUDSON CANYON    1700            64 69   20/ 21/ 23 1017.1          9/ 8
EXECUTION ROCKS  1700            65 68   60/  8/ 12   N/A
WESTERN LI SOUND 1700            64      60/ 10/ 12   N/A           2/ 4
CENTRAL LI SOUND 1700            61 68   20/ 14/ 19   N/A           2/ 4
EASTERN LI SOUND 1700            60 65   10/ 14/ 17   N/A
ROBBINS REEF     1700            64      20/  5/  7 1018.9
$$


>>>>>>>>>>>>>>>>>>>>>>>>>>>> KEY <<<<<<<<<<<<<<<<<<<<<<<<<<<
>                                                          <
>     SKY/WX - SKY CONDITION/PRESENT WEATHER               <
>     TMP    - TEMPERATURE IN FAHRENHEIT                   <
>     DP     - DEWPOINT IN FAHRENHEIT                      <
>     RH     - RELATIVE HUMIDITY IN PERCENT                <
>     WIND   - DIRECTION AND SPEED IN MPH                  <
>     PRES   - MEAN SEA LEVEL PRESSURE IN INCHES OF HG     <
>     WCI    - WIND CHILL INDEX                            <
>     VSB    - VISIBILITY IN MILES                         <
>     HX     - HEAT INDEX                                  <
>     TC     - TEMPERATURE IN CELSIUS                      <
>     VRB    - VARIABLE WIND DIRECTION                     <
>                                                          <
>>>>>>>>>>>>>>>>>>>>>>>>>>>> KEY <<<<<<<<<<<<<<<<<<<<<<<<<<<




USA.gov is the U.S. government's official web portal to all federal, state and local government web resources and services.